Weather Roundup
Issued by NWS

Home | Current Version | Previous Version | Text Only | Print | Product List | Glossary On
Versions: 1 2 3 4 5 6 7 8 9 10 11 12 13 14 15 16 17 18 19 20 21 22 23 24 25 26 27 28 29 30 31 32 33 34 35 36 37 38 39 40 41 42 43 44 45 46 47 48 49 50
545
NZUS93 KARX 010159
HRRWXR

CURRENT HOURLY OBSERVATIONS ACROSS
MUCH OF THE UPPER MISSISSIPPI VALLEY
NATIONAL WEATHER SERVICE LA CROSSE WI
900 PM CDT TUE MAY 31 2016


...SOUTHEAST MINNESOTA...


CITY           SKY/WX    TMP DP  RH WIND       PRES   REMARKS
ROCHESTER      CLOUDY    66  63  90 SW5       29.90R
ROCHESTER/MAYO CLOUDY    66  63  91 CALM      29.89S
WINONA         CLOUDY    63  61  94 SE3       29.89S
AUSTIN         CLOUDY    63  57  82 SW3       29.90R
ALBERT LEA     CLOUDY    66  57  72 CALM      29.89R
DODGE CENTER   CLOUDY    64  61  88 S6        29.90R
PRESTON        CLOUDY    62  60  94 SE6       29.91R
OWATONNA       CLOUDY    66  61  82 S6        29.88R
FARIBAULT      CLOUDY    66  61  82 S5        29.87S
$$

...ELSEWHERE IN MINNESOTA...


CITY           SKY/WX    TMP DP  RH WIND       PRES   REMARKS
MINNEAPOLIS    CLOUDY    70  58  65 SE7       29.84S
INTNL FALLS    FOG       53  52  96 SE9       29.81F VSB 3/4
DULUTH         CLOUDY    45  43  93 E8        29.87F FOG
RED WING       CLOUDY    64  63  94 SE3       29.86S
REDWOOD FALLS  CLEAR     67  50  54 S8        29.82F
MANKATO        CLEAR     68  50  52 W5        29.87R
WORTHINGTON    PTCLDY    66  51  58 S8        29.88F
FAIRMONT       CLEAR     66  54  63 SW5       29.88S
$$

...SOUTHWEST WISCONSIN...


CITY           SKY/WX    TMP DP  RH WIND       PRES   REMARKS
LA CROSSE      LGT RAIN  64  62  93 SE8       29.89F
PRAIRIE DU CHI LGT RAIN  64  62  95 CALM      29.90F
BOSCOBEL       NOT AVBL
LONE ROCK      NOT AVBL
PLATTEVILLE    CLOUDY    69  64  86 SE8       29.92R
FORT MC COY    RAIN      62  62 100 SE6       29.92F
MAUSTON-NEW LI CLOUDY    68  61  78 NW12      29.92R
VIROQUA        CLOUDY    63  63 100 SE7       29.92S
WIS DELLS      LGT RAIN  66  59  78 SE15      29.91S
$$

...ELSEWHERE IN WISCONSIN...


CITY           SKY/WX    TMP DP  RH WIND       PRES   REMARKS
MILWAUKEE      CLOUDY    62  58  86 SE6       29.95F
MADISON        CLOUDY    68  59  73 S10       29.93S
GREEN BAY      CLOUDY    62  56  80 E5        29.96S
EAU CLAIRE     CLOUDY    63  62  97 SE5       29.87S
BLACK RVR FLS  RAIN      62  62 100 SE5       29.90F
MEDFORD        RAIN      60  60 100 CALM      29.91F
WAUSAU         CLOUDY    68  59  73 SE9       29.91S
WIS RAPIDS     LGT RAIN  66  60  81 W8        29.94R
MARSHFIELD     RAIN      62  59  90 SW6       29.91F FOG
RICE LAKE      CLOUDY    62  60  93 SE9       29.89S
$$

...NORTHEAST IOWA...


CITY           SKY/WX    TMP DP  RH WIND       PRES   REMARKS
WATERLOO       CLOUDY    65  63  93 SE3       29.88S
DUBUQUE        CLOUDY    68  64  87 SE7       29.91R
DECORAH        LGT RAIN  63  63 100 CALM      29.89F
MASON CITY     CLOUDY    64  59  83 CALM      29.91R
CHARLES CITY   MOCLDY    66  66 100 CALM      29.90S
OELWEIN        CLOUDY    64 N/A N/A E6        29.90S
$$

...ELSEWHERE IN IOWA...


CITY           SKY/WX    TMP DP  RH WIND       PRES   REMARKS
DES MOINES     MOCLDY    69  63  81 CALM      29.91R
IOWA CITY      HVY RAIN  68  65  90 N15       29.92R FOG
FORT DODGE     CLEAR     63  52  67 CALM      29.91S
MARSHALLTOWN   MOCLDY    66  64  93 CALM      29.90R
CEDAR RAPIDS   RAIN      65  65 100 CALM      29.91R FOG
$$

...NORTHERN ILLINOIS...


CITY           SKY/WX    TMP DP  RH WIND       PRES   REMARKS
CHICAGO-OHARE  CLOUDY    67  61  81 E6        29.95S
CHICAGO-MIDWAY CLOUDY    67  60  78 SE8       29.96R
MOLINE         CLOUDY    70  65  84 E5        29.90R
ROCKFORD       CLOUDY    66  61  84 SE3       29.95F
PEORIA         CLOUDY    72  61  68 E8        29.92R
$$

NOTE: "FAIR" INDICATES FEW OR NO CLOUDS BELOW 12,000 FEET WITH NO
SIGNIFICANT WEATHER AND/OR OBSTRUCTIONS TO VISIBILITY. WIND
SPEEDS ARE IN MILES-PER-HOUR.




USA.gov is the U.S. government's official web portal to all federal, state and local government web resources and services.